Date,TemperatureHighF,TemperatureAvgF,TemperatureLowF,DewpointHighF,DewpointAvgF,DewpointLowF,HumidityHigh,HumidityAvg,HumidityLow,PressureMaxIn,PressureMinIn,WindSpeedMaxMPH,WindSpeedAvgMPH,GustSpeedMaxMPH,PrecipitationSumIn
2014-1-1,67.5,45.8,29.7,35.4,31.1,25.7,91,63,23,30.26,30.15,3,0,5,0.00
2014-1-2,67.5,47.7,32.7,37.2,33.8,29.1,88,63,29,30.22,30.09,4,0,6,0.00
2014-1-3,67.8,48.1,34.3,39.2,35.3,31.1,89,66,28,30.11,29.98,3,0,4,0.00
2014-1-4,68.2,48.2,33.4,40.8,32.3,21.6,92,60,22,30.11,30.01,9,1,11,0.00
2014-1-5,66.0,47.0,30.4,35.4,29.1,18.1,81,53,27,30.25,30.11,7,1,12,0.00
2014-1-6,61.9,46.5,33.1,39.4,35.8,29.7,89,68,43,30.32,30.19,4,0,5,0.00
2014-1-7,64.0,50.6,38.1,48.9,39.1,31.6,91,68,31,30.23,30.14,8,1,12,0.00
2014-1-8,56.7,51.5,43.2,50.2,48.4,41.7,96,89,75,30.25,30.16,10,2,13,0.01
2014-1-9,59.5,50.4,42.4,50.5,46.0,41.4,97,85,69,30.29,30.20,11,2,14,0.01
2014-1-10,65.1,48.6,36.0,48.4,42.1,34.7,96,80,51,30.34,30.19,3,0,5,0.00
2014-1-11,57.9,47.7,39.7,52.3,44.7,37.8,97,90,78,30.31,30.17,10,1,14,0.01
2014-1-12,60.6,47.2,38.7,47.1,37.7,30.9,98,74,34,30.42,30.29,12,1,14,0.01
2014-1-13,68.5,53.4,39.9,38.5,35.4,31.5,76,53,27,30.49,30.37,8,2,15,0.00
2014-1-14,73.2,53.6,35.6,34.9,29.4,22.3,83,46,16,30.48,30.35,14,2,19,0.00
2014-1-15,71.1,50.8,36.1,38.8,34.0,29.8,79,57,27,30.39,30.23,6,1,8,0.00
2014-1-16,72.3,49.8,32.4,37.4,33.3,28.4,87,59,24,30.28,30.15,6,0,8,0.00
2014-1-17,70.9,48.4,31.5,39.2,33.8,27.7,88,62,29,30.24,30.14,5,0,10,0.00
2014-1-18,74.8,48.6,30.6,33.8,31.1,27.7,90,58,19,30.22,30.09,5,0,6,0.00
2014-1-19,69.1,47.3,29.7,37.2,32.3,26.1,87,61,28,30.18,30.08,8,0,8,0.00
2014-1-20,72.9,48.3,31.6,35.1,30.8,28.0,89,58,21,30.27,30.16,4,0,6,0.00
2014-1-21,71.1,47.4,30.6,32.5,29.3,26.1,86,56,20,30.31,30.19,5,0,6,0.00
2014-1-22,75.6,48.8,30.4,32.2,27.6,17.8,84,52,12,30.22,29.96,8,0,8,0.00
2014-1-23,65.7,48.7,34.2,34.2,31.3,28.2,80,55,27,30.05,29.90,9,1,12,0.00
2014-1-24,72.3,50.3,34.5,37.8,33.8,30.6,86,58,24,30.30,30.05,6,0,7,0.00
2014-1-25,74.5,52.9,37.8,36.7,32.4,27.5,82,52,19,30.31,30.14,5,0,9,0.00
2014-1-26,73.2,53.6,37.2,41.4,33.4,29.3,78,51,21,30.16,30.03,14,1,14,0.00
2014-1-27,65.8,51.0,37.9,48.9,43.1,33.6,95,75,48,30.22,30.09,11,2,14,0.00
2014-1-28,69.1,58.3,49.8,56.8,51.0,45.5,95,78,52,30.28,30.19,11,2,14,0.00
2014-1-29,61.9,58.2,55.0,58.3,55.7,49.1,96,92,81,30.22,29.99,12,2,15,0.00
2014-1-30,58.5,53.0,50.4,50.9,47.6,45.0,95,82,64,30.00,29.87,14,3,17,0.06
2014-1-31,61.0,50.4,39.4,46.2,38.5,24.8,95,68,26,30.11,29.92,13,2,16,0.00
2014-2-1,60.1,44.4,30.4,38.3,32.8,26.8,93,68,30,30.20,30.10,9,1,12,0.00
2014-2-2,46.6,42.4,37.0,44.1,38.8,33.1,93,87,80,30.10,29.89,8,1,11,0.57
2014-2-3,54.5,44.9,36.5,42.8,39.2,34.2,97,82,58,30.11,30.02,11,2,14,0.00
2014-2-4,56.7,43.2,32.2,41.5,36.8,31.1,96,80,52,30.19,30.09,8,1,11,0.00
2014-2-5,54.0,44.1,31.8,43.9,37.9,30.2,96,80,56,30.24,30.09,11,2,13,0.04
2014-2-6,52.9,48.8,44.8,49.1,46.0,43.2,96,90,79,30.09,29.92,6,1,8,0.50
2014-2-7,55.6,51.9,47.7,50.7,48.5,46.2,96,88,78,30.12,30.02,18,2,20,0.18
2014-2-8,61.0,57.6,54.7,56.3,53.3,49.6,92,86,78,30.19,30.08,14,3,22,0.35
2014-2-9,61.2,57.3,55.2,56.5,55.0,53.8,96,92,83,30.19,30.08,10,1,11,0.92
2014-2-10,60.1,54.9,49.3,54.9,52.5,48.0,96,91,81,30.30,30.13,11,2,15,0.03
2014-2-11,64.6,53.2,46.8,52.3,48.5,44.8,98,86,57,30.27,30.17,9,1,12,0.00
2014-2-12,65.5,52.6,41.7,49.5,45.7,40.6,98,80,44,30.32,30.19,8,1,10,0.01
2014-2-13,72.7,59.4,49.5,58.6,52.7,46.2,92,80,61,30.24,30.11,9,1,12,0.00
2014-2-14,64.2,57.6,50.4,56.1,53.2,48.0,95,86,65,30.18,30.08,9,2,11,0.00
2014-2-15,61.0,52.0,44.8,53.8,48.6,43.7,97,89,76,30.08,29.98,11,1,15,0.01
2014-2-16,65.5,54.6,42.4,53.2,42.7,33.6,96,69,32,30.23,30.05,10,1,11,0.02
2014-2-17,61.5,48.8,36.1,46.4,41.2,34.5,95,77,46,30.21,30.13,12,2,14,0.00
2014-2-18,66.0,50.6,38.3,50.2,43.8,37.0,96,80,45,30.24,30.11,11,1,14,0.00
2014-2-19,66.4,55.6,45.3,51.6,45.8,36.5,96,73,34,30.24,30.11,11,2,13,0.05
2014-2-20,69.1,52.7,37.0,42.3,37.9,32.5,96,63,30,30.24,30.13,11,1,15,0.00
2014-2-21,72.5,54.3,37.8,43.2,39.5,34.9,92,62,29,30.15,29.99,12,1,13,0.00
2014-2-22,72.5,54.9,39.0,48.4,42.0,34.3,92,67,26,30.04,29.93,12,1,12,0.00
2014-2-23,74.7,53.9,39.6,49.6,43.4,34.3,95,73,24,30.06,29.95,8,1,12,0.00
2014-2-24,76.1,56.3,37.8,47.8,42.5,36.0,94,65,31,30.03,29.91,8,1,10,0.00
2014-2-25,67.5,54.1,41.2,51.3,45.9,39.0,93,75,47,30.00,29.90,13,2,16,0.00
2014-2-26,59.5,55.6,52.3,55.0,51.3,47.1,93,85,76,29.98,29.70,16,3,25,0.69
2014-2-27,65.8,57.9,52.9,51.6,48.6,45.1,89,72,50,29.93,29.55,16,2,18,0.08
2014-2-28,60.8,55.0,50.5,53.1,49.7,44.6,95,83,61,29.55,29.39,15,2,23,0.99
2014-3-1,66.0,57.4,49.3,49.3,47.3,45.1,90,70,51,29.84,29.51,19,5,22,0.01
2014-3-2,60.6,53.1,46.6,53.8,48.7,44.6,94,85,66,30.20,29.84,17,2,22,0.00
2014-3-3,61.3,52.4,43.5,52.2,47.4,42.3,96,84,59,30.19,30.06,5,0,7,0.07
2014-3-4,67.1,57.4,52.3,55.9,53.2,50.5,96,86,65,30.14,30.06,8,1,10,0.01
2014-3-5,71.6,60.5,51.1,57.4,52.9,47.8,96,78,53,30.12,30.01,11,1,12,0.23
2014-3-6,64.8,58.0,47.8,57.4,51.5,45.9,94,80,55,30.21,30.06,12,3,14,0.03
2014-3-7,68.7,54.7,42.1,49.6,45.9,41.0,97,75,40,30.21,30.11,12,2,14,0.01
2014-3-8,73.6,57.5,40.8,50.9,46.1,39.2,95,69,41,30.23,30.14,7,1,9,0.00
2014-3-9,78.1,63.5,53.8,56.5,51.8,47.8,87,67,40,30.22,30.08,9,1,10,0.00
2014-3-10,69.4,59.8,52.0,53.2,46.6,38.8,93,63,40,30.25,30.11,11,2,13,0.03
2014-3-11,70.0,59.3,45.9,41.4,32.1,18.9,75,38,20,30.22,30.03,13,3,20,0.00
2014-3-12,75.0,63.6,50.9,37.6,28.5,19.0,60,28,18,30.12,30.01,12,3,18,0.00
2014-3-13,77.5,58.4,40.1,48.4,36.6,22.8,83,51,14,30.09,29.98,13,2,18,0.00
2014-3-14,75.0,58.9,46.8,52.0,48.7,43.0,90,71,38,30.24,30.07,10,2,13,0.00
2014-3-15,81.0,62.1,43.3,48.6,43.3,30.4,93,58,17,30.33,30.23,8,1,11,0.00
2014-3-16,81.9,60.7,43.5,50.4,44.5,32.2,90,62,17,30.33,30.18,13,3,17,0.00
2014-3-17,69.3,57.4,48.9,49.8,43.8,35.2,87,64,30,30.25,29.99,12,2,19,0.00
2014-3-18,72.0,56.2,39.0,41.4,33.1,23.9,90,49,18,30.00,29.91,11,1,14,0.00
2014-3-19,77.2,57.8,38.5,43.9,37.1,31.5,84,51,24,30.11,29.99,7,1,12,0.00
2014-3-20,76.6,59.0,46.6,48.7,43.5,36.1,84,60,24,30.08,29.93,14,3,15,0.00
2014-3-21,67.5,55.1,43.3,48.4,45.8,40.6,91,73,46,30.01,29.93,13,4,17,0.00
2014-3-22,70.2,56.3,46.2,49.6,46.4,43.0,90,72,41,30.13,30.01,14,4,15,0.00
2014-3-23,72.3,57.5,46.9,50.7,46.9,42.6,91,70,44,30.19,30.08,12,2,15,0.00
2014-3-24,77.9,60.1,41.0,49.5,43.1,38.7,93,59,26,30.16,30.01,12,2,14,0.00
2014-3-25,64.9,54.0,43.3,55.6,47.6,39.9,90,79,56,30.06,29.88,20,3,20,0.25
2014-3-26,59.5,53.4,49.8,52.2,48.5,46.6,93,84,63,30.00,29.83,15,3,19,0.51
2014-3-27,63.7,55.3,49.5,51.3,47.0,41.9,94,75,51,30.16,30.00,13,2,14,0.06
2014-3-28,69.3,57.8,47.8,50.7,48.5,45.7,94,73,48,30.21,30.11,14,2,17,0.00
2014-3-29,60.6,55.9,50.0,55.8,50.3,46.9,90,82,72,30.16,30.01,11,2,16,0.42
2014-3-30,59.9,51.8,43.2,47.3,43.9,40.6,97,76,51,30.15,30.05,17,3,18,0.01
2014-3-31,55.9,46.6,41.2,46.4,42.3,39.7,95,86,61,30.11,29.86,16,1,20,0.81
2014-4-1,56.8,46.8,40.3,47.5,42.6,39.2,97,86,56,29.97,29.85,14,2,19,0.51
2014-4-2,62.2,50.0,39.7,46.0,41.9,37.9,97,76,43,30.13,29.90,10,2,12,0.01
2014-4-3,64.6,52.2,41.0,47.7,43.1,39.0,95,74,41,30.14,30.04,12,2,15,0.00
2014-4-4,59.2,51.3,46.6,48.7,45.6,41.9,95,82,57,30.08,30.00,16,2,18,0.15
2014-4-5,64.6,53.2,40.3,50.4,46.4,39.4,98,80,55,30.22,30.08,15,2,19,0.01
2014-4-6,79.2,60.6,41.9,52.5,47.5,40.5,96,67,29,30.26,30.11,11,2,14,0.00
2014-4-7,82.4,65.1,46.9,57.2,51.9,45.0,94,66,38,30.17,30.07,5,1,10,0.00
2014-4-8,85.5,67.5,50.5,59.0,52.9,48.6,94,63,34,30.13,30.01,13,2,15,0.00
2014-4-9,77.0,62.8,49.6,55.4,48.5,37.0,91,63,30,30.09,29.98,12,3,14,0.00
2014-4-10,83.5,62.7,42.8,55.0,46.2,31.6,90,60,19,30.04,29.88,11,2,14,0.00
2014-4-11,69.6,58.7,51.6,52.9,49.9,45.5,89,74,46,29.94,29.84,14,4,17,0.00
2014-4-12,67.3,57.0,52.9,51.4,48.8,47.7,85,75,55,29.96,29.87,15,4,18,0.00
2014-4-13,79.0,61.3,52.2,53.6,49.3,44.2,84,68,30,30.06,29.96,14,3,18,0.00
2014-4-14,77.7,61.4,47.8,55.0,50.3,39.9,96,71,30,30.13,30.02,14,4,15,0.00
2014-4-15,73.0,59.5,50.9,52.9,49.9,47.5,92,73,43,30.07,29.90,18,5,19,0.00
2014-4-16,80.1,63.4,46.9,52.5,48.4,43.2,91,62,30,29.95,29.81,13,2,16,0.00
2014-4-17,69.4,59.2,48.4,54.3,50.3,45.1,90,73,56,29.89,29.80,18,4,21,0.00
2014-4-18,69.6,58.4,49.1,52.3,48.9,46.2,93,72,51,29.96,29.88,16,4,24,0.00
2014-4-19,64.9,56.0,49.8,52.9,48.0,42.4,90,76,46,30.15,29.96,18,5,21,0.00
2014-4-20,79.9,63.2,49.1,55.4,48.5,40.6,94,64,32,30.17,30.05,15,2,17,0.00
2014-4-21,74.7,59.4,46.9,48.7,43.7,33.3,85,60,27,30.09,29.98,17,3,19,0.00
2014-4-22,62.4,54.9,48.7,50.5,42.7,35.6,91,65,40,30.14,29.97,19,5,22,0.01
2014-4-23,66.0,55.5,41.2,48.4,42.3,36.7,86,63,38,30.17,30.08,15,4,20,0.00
2014-4-24,66.0,57.5,48.7,53.2,50.4,45.7,93,78,57,30.13,29.99,15,4,17,0.00
2014-4-25,56.8,53.4,47.1,53.4,48.8,42.6,92,85,67,30.00,29.80,17,3,20,0.68
2014-4-26,60.1,51.7,41.7,46.2,42.8,39.4,96,73,48,30.11,29.86,21,4,24,0.01
2014-4-27,63.9,55.5,50.0,51.6,46.2,43.2,88,72,55,30.15,30.06,17,3,18,0.00
2014-4-28,74.7,59.6,43.0,52.0,46.7,40.6,95,66,31,30.24,30.15,14,2,16,0.00
2014-4-29,88.0,68.3,45.5,49.6,44.0,37.4,91,50,19,30.23,30.05,11,1,14,0.00
2014-4-30,91.8,73.0,51.6,51.4,48.7,43.9,85,48,23,30.11,30.00,12,1,14,0.00
2014-5-1,92.1,73.9,52.9,53.1,46.4,33.1,85,43,18,30.09,30.04,12,2,14,0.00
2014-5-2,83.8,66.1,49.3,53.1,45.8,38.1,91,54,21,30.09,29.98,17,4,21,0.00
2014-5-3,66.0,58.3,53.2,53.1,50.4,45.7,93,76,53,30.06,29.99,15,6,23,0.00
2014-5-4,66.9,59.2,54.0,52.3,50.9,49.8,88,75,57,30.08,30.01,15,5,19,0.00
2014-5-5,64.6,57.8,52.0,50.9,48.1,44.2,86,71,53,30.06,29.95,19,6,24,0.00
2014-5-6,67.6,57.4,48.0,50.0,45.2,41.5,85,66,40,29.96,29.88,18,4,24,0.00
2014-5-7,66.2,55.8,48.9,48.9,46.6,43.5,86,72,51,30.03,29.91,20,5,25,0.00
2014-5-8,66.6,58.7,52.3,57.2,51.5,46.0,91,77,65,30.11,30.02,13,4,16,0.00
2014-5-9,66.9,58.9,52.0,55.6,51.0,46.4,94,76,52,30.17,30.10,18,4,24,0.01
2014-5-10,68.7,58.5,45.7,48.0,44.8,36.7,93,63,31,30.16,30.02,19,3,20,0.00
2014-5-11,79.5,64.5,47.1,46.2,38.2,26.8,88,44,15,30.11,30.00,13,3,17,0.00
2014-5-12,87.8,68.6,45.9,45.5,39.3,30.0,82,42,13,30.12,30.02,10,2,15,0.00
2014-5-13,94.8,74.2,51.1,45.0,40.9,36.9,74,35,14,30.14,30.05,16,2,17,0.00
2014-5-14,96.1,76.7,53.2,47.1,41.3,30.7,73,35,11,30.14,30.02,13,2,16,0.00
2014-5-15,92.1,73.8,53.1,51.1,44.5,28.0,73,41,11,30.10,30.02,15,3,18,0.00
2014-5-16,79.3,65.7,55.4,52.3,47.3,41.5,84,54,28,30.08,29.98,17,4,20,0.00
2014-5-17,67.5,59.4,54.7,53.4,51.3,49.8,88,75,56,30.02,29.96,20,7,22,0.00
2014-5-18,68.4,59.7,53.1,54.0,51.1,48.4,86,74,53,30.01,29.94,27,5,27,0.00
2014-5-19,65.8,58.2,53.4,51.3,49.8,47.8,87,75,55,29.98,29.94,19,5,25,0.00
2014-5-20,71.1,59.8,52.7,51.8,50.1,47.8,87,72,49,30.01,29.94,17,4,21,0.00
2014-5-21,75.9,62.9,54.7,54.3,51.7,49.8,87,69,45,29.99,29.90,17,6,22,0.00
2014-5-22,77.0,62.6,55.0,55.4,52.6,50.9,87,72,46,30.03,29.92,17,5,18,0.00
2014-5-23,76.8,62.0,52.3,55.4,52.5,50.2,94,73,44,30.05,29.93,18,7,21,0.00
2014-5-24,76.1,63.3,54.9,55.4,52.5,49.5,88,69,47,30.01,29.91,18,6,22,0.00
2014-5-25,84.9,68.0,52.0,55.2,50.8,48.2,89,58,32,29.98,29.90,14,3,20,0.00
2014-5-26,82.2,67.4,50.5,55.2,50.8,46.0,86,57,37,30.02,29.95,18,4,22,0.00
2014-5-27,75.0,62.3,52.5,50.2,47.2,39.2,86,61,29,30.05,29.97,18,5,23,0.00
2014-5-28,78.6,65.0,50.5,48.9,43.8,29.7,85,51,17,30.08,29.94,14,3,18,0.00
2014-5-29,83.1,65.9,48.2,46.9,41.8,33.3,83,48,19,29.96,29.88,14,3,19,0.00
2014-5-30,67.3,57.6,50.5,51.3,48.9,45.3,90,74,54,29.99,29.91,16,6,20,0.00
2014-5-31,78.6,63.8,52.9,50.9,48.1,41.0,86,60,31,29.98,29.89,18,5,18,0.00
2014-6-1,84.6,67.6,49.6,53.8,45.2,31.3,86,51,15,29.92,29.78,14,4,17,0.00
2014-6-2,68.5,59.0,52.0,52.7,50.3,45.7,90,74,54,29.92,29.82,18,5,22,0.00
2014-6-3,77.0,63.6,54.0,52.7,50.1,44.8,85,64,33,29.95,29.85,14,5,19,0.00
2014-6-4,86.4,69.2,52.0,56.3,50.0,43.7,92,56,24,29.91,29.80,17,4,19,0.00
2014-6-5,81.9,68.5,55.6,54.1,50.7,47.1,82,56,31,29.85,29.78,16,5,19,0.00
2014-6-6,78.4,64.7,54.0,54.0,51.9,49.1,92,66,40,29.84,29.76,19,6,23,0.00
2014-6-7,84.4,68.4,53.6,56.3,53.0,50.2,92,62,34,29.85,29.76,17,5,20,0.00
2014-6-8,102.9,81.0,57.7,58.5,52.1,42.4,83,44,14,29.83,29.69,14,2,19,0.00
2014-6-9,103.3,79.7,60.3,57.6,52.4,32.9,76,43,9,29.75,29.64,15,4,18,0.00
2014-6-10,78.3,68.3,57.9,57.7,54.7,52.9,87,63,42,29.82,29.70,20,6,26,0.00
2014-6-11,75.6,64.3,57.0,55.9,54.0,52.0,87,71,49,29.91,29.80,15,6,21,0.00
2014-6-12,67.5,59.5,54.0,53.1,51.2,49.8,87,75,55,29.99,29.90,19,6,22,0.00
2014-6-13,82.2,65.5,53.1,53.2,50.6,42.1,88,62,29,29.99,29.91,17,4,19,0.00
2014-6-14,86.7,68.0,52.7,52.5,48.3,41.2,85,55,23,29.95,29.83,17,4,22,0.00
2014-6-15,72.0,59.8,53.4,52.7,50.7,48.7,86,73,49,29.87,29.80,18,6,23,0.00
2014-6-16,63.9,58.3,53.2,50.5,48.2,45.7,84,70,53,29.93,29.85,22,7,26,0.00
2014-6-17,75.7,64.3,52.0,48.7,45.2,41.0,81,53,31,29.96,29.89,15,4,20,0.00
2014-6-18,87.1,70.3,49.3,45.9,41.4,31.5,78,40,14,29.96,29.91,18,3,21,0.00
2014-6-19,82.6,68.3,52.2,52.3,48.0,41.2,80,52,25,29.98,29.93,17,4,18,0.00
2014-6-20,85.1,67.9,53.1,54.9,50.8,44.8,87,58,31,29.99,29.91,18,4,20,0.00
2014-6-21,71.8,61.0,54.0,52.2,50.2,47.5,85,69,43,29.94,29.88,16,6,19,0.00
2014-6-22,74.5,60.9,52.5,52.2,50.5,48.4,89,71,43,29.96,29.90,21,7,22,0.00
2014-6-23,79.9,65.3,54.5,54.3,51.7,47.3,87,64,37,29.96,29.90,19,6,19,0.00
2014-6-24,77.7,64.9,53.8,55.9,52.6,48.0,87,66,42,29.99,29.95,19,6,24,0.00
2014-6-25,67.1,60.6,56.5,59.2,56.5,53.6,92,86,75,30.02,29.96,15,6,20,0.00
2014-6-26,72.1,63.4,58.5,58.1,55.3,52.0,93,76,54,30.01,29.94,19,6,24,0.00
2014-6-27,76.5,65.3,56.8,61.7,57.5,54.1,92,77,55,30.00,29.92,15,5,19,0.00
2014-6-28,78.6,66.0,57.9,56.8,54.6,52.0,88,69,43,29.97,29.88,17,6,21,0.00
2014-6-29,91.9,74.1,54.0,57.7,53.0,50.5,88,53,26,29.95,29.81,15,3,19,0.00
2014-6-30,99.9,78.7,59.7,54.3,51.1,43.2,77,43,15,29.84,29.74,19,3,20,0.00
2014-7-1,80.2,67.3,57.0,58.5,55.6,53.2,88,68,47,29.85,29.77,17,6,21,0.00
2014-7-2,79.9,64.5,57.0,58.3,55.5,53.4,89,74,46,29.92,29.84,19,6,21,0.00
2014-7-3,79.9,66.1,57.0,57.2,54.4,52.0,89,68,43,29.94,29.88,16,6,19,0.00
2014-7-4,83.7,67.2,53.6,57.9,51.8,43.9,90,62,30,30.00,29.89,18,5,19,0.00
2014-7-5,88.5,70.1,50.7,55.6,47.8,36.1,92,53,17,30.07,29.99,14,4,18,0.00
2014-7-6,91.8,72.4,53.1,52.5,46.2,35.8,76,44,14,30.04,29.91,16,5,19,0.00
2014-7-7,86.7,70.8,59.7,57.2,53.5,45.9,77,56,25,29.91,29.82,11,3,14,0.00
2014-7-8,82.6,68.2,58.8,57.7,55.6,54.0,86,66,41,29.91,29.84,17,5,20,0.00
2014-7-9,80.8,67.2,57.7,59.0,56.4,54.0,91,71,46,29.94,29.83,15,5,18,0.00
2014-7-10,78.6,66.7,57.9,59.0,56.4,54.0,89,71,48,29.94,29.85,16,5,18,0.00
2014-7-11,74.7,65.1,59.9,57.2,55.6,53.8,86,72,52,30.08,29.93,20,5,20,0.00
2014-7-12,76.3,64.6,57.7,57.2,55.3,54.1,89,73,49,30.10,30.01,20,6,21,0.00
2014-7-13,85.6,68.0,55.6,59.4,56.1,53.6,94,69,41,30.05,29.87,16,6,19,0.00
2014-7-14,95.4,76.0,59.5,59.4,56.4,47.8,83,54,21,29.91,29.83,15,4,19,0.00
2014-7-15,83.5,72.5,63.9,64.0,60.0,56.1,79,66,52,29.97,29.88,18,5,22,0.00
2014-7-16,79.3,67.4,61.3,62.1,58.5,54.9,90,75,45,30.04,29.96,15,6,21,0.00
2014-7-17,75.4,66.6,61.5,59.5,57.7,56.5,86,74,57,30.02,29.94,15,4,19,0.00
2014-7-18,75.7,66.4,61.0,59.9,57.6,56.5,88,74,57,30.02,29.93,16,5,19,0.00
2014-7-19,81.0,68.5,60.4,59.7,57.8,56.3,88,71,46,29.97,29.90,19,6,20,0.00
2014-7-20,77.4,66.8,60.6,61.2,59.0,57.7,90,77,55,29.99,29.92,16,6,18,0.00
2014-7-21,76.5,67.7,61.5,61.0,59.1,56.3,86,75,58,30.06,29.98,16,4,18,0.00
2014-7-22,77.4,67.0,60.6,60.3,58.2,56.1,88,75,53,30.11,30.03,16,4,21,0.00
2014-7-23,78.6,68.9,63.1,61.3,59.1,57.4,86,72,50,30.15,30.04,17,4,17,0.00
2014-7-24,93.9,74.8,58.5,61.2,57.5,52.7,92,60,26,30.06,29.82,14,3,18,0.00
2014-7-25,99.9,80.3,58.5,55.0,51.0,43.0,80,42,16,29.88,29.80,15,2,20,0.00
2014-7-26,96.3,77.9,59.2,58.5,51.1,38.8,74,43,15,29.93,29.86,14,3,17,0.00
2014-7-27,95.2,77.7,66.0,58.3,52.6,34.3,69,46,12,29.98,29.89,14,4,17,0.00
2014-7-28,87.3,71.6,60.4,59.4,56.3,53.1,87,61,33,30.03,29.96,16,5,19,0.00
2014-7-29,91.9,76.6,63.1,61.0,52.6,37.0,80,48,15,30.04,29.95,14,4,17,0.00
2014-7-30,91.2,75.5,62.6,59.4,56.3,53.4,80,54,29,29.99,29.91,17,4,18,0.00
2014-7-31,89.4,73.7,58.8,59.4,56.0,51.4,89,58,29,29.97,29.86,17,5,17,0.00
2014-8-1,91.6,75.7,61.3,59.5,55.7,50.2,80,53,27,29.90,29.83,17,5,21,0.00
2014-8-2,79.9,66.4,58.3,59.5,56.9,54.9,93,73,50,29.95,29.87,20,6,25,0.00
2014-8-3,76.5,64.0,58.5,58.6,56.7,55.0,91,78,53,29.98,29.89,17,6,19,0.00
2014-8-4,80.8,65.7,58.6,59.2,57.1,55.4,91,75,47,30.01,29.93,12,4,17,0.00
2014-8-5,86.4,71.3,60.3,63.5,59.8,56.3,88,69,44,30.07,29.98,12,3,16,0.00
2014-8-6,85.1,74.7,65.8,64.8,60.4,55.8,84,63,42,30.02,29.93,18,4,22,0.00
2014-8-7,79.9,66.6,59.0,60.4,57.0,55.4,92,73,45,29.98,29.88,18,6,21,0.00
2014-8-8,83.1,67.3,58.6,57.7,55.4,53.6,89,69,38,29.93,29.85,15,6,19,0.00
2014-8-9,72.7,62.6,57.6,57.6,55.1,53.6,88,77,58,30.00,29.89,17,7,23,0.00
2014-8-10,79.3,65.5,58.1,57.9,55.7,53.4,87,72,46,30.01,29.92,15,5,18,0.00
2014-8-11,83.5,68.6,57.4,60.4,57.0,54.5,91,70,40,29.96,29.87,14,4,18,0.00
2014-8-12,79.0,66.1,57.7,58.1,56.4,54.7,91,73,47,29.98,29.91,13,4,18,0.00
2014-8-13,81.3,67.8,58.6,58.3,56.2,53.8,87,69,39,30.01,29.92,14,6,17,0.00
2014-8-14,83.3,69.4,58.8,59.5,55.5,48.9,92,65,32,29.97,29.88,13,4,17,0.00
2014-8-15,87.8,70.8,57.4,59.9,54.6,48.2,92,61,27,30.00,29.92,15,4,16,0.00
2014-8-16,86.5,69.6,57.9,59.7,54.5,48.4,95,64,28,30.05,29.94,14,4,16,0.00
2014-8-17,83.8,66.3,55.0,56.5,54.3,49.8,94,70,33,30.04,29.89,17,6,18,0.00
2014-8-18,74.7,63.6,59.0,59.4,57.2,55.6,91,81,58,29.92,29.80,19,6,22,0.00
2014-8-19,75.7,65.0,58.8,59.9,57.8,56.1,91,79,57,29.89,29.80,14,4,18,0.00
2014-8-20,74.3,66.6,60.6,60.1,57.9,56.1,87,74,59,29.93,29.85,20,5,21,0.00
2014-8-21,84.9,69.9,58.5,60.8,58.1,55.6,91,69,41,29.96,29.88,13,3,16,0.00
2014-8-22,80.1,66.6,58.8,60.3,57.7,55.0,91,75,47,29.93,29.87,16,5,21,0.00
2014-8-23,81.3,66.9,58.6,57.6,55.6,50.7,89,70,35,29.96,29.83,14,5,19,0.00
2014-8-24,78.4,66.1,59.0,57.7,56.5,55.4,90,73,47,29.91,29.80,16,6,20,0.00
2014-8-25,73.8,64.5,58.8,57.9,56.3,54.7,87,76,55,29.96,29.85,14,4,17,0.00
2014-8-26,83.5,67.6,55.8,57.6,55.7,52.7,91,69,37,30.02,29.92,16,4,19,0.00
2014-8-27,91.2,72.4,57.7,59.9,56.7,50.5,91,63,26,30.06,29.96,17,4,20,0.00
2014-8-28,86.9,70.1,57.9,61.2,57.7,53.4,93,68,40,30.08,29.91,16,5,21,0.00
2014-8-29,88.3,67.6,59.5,60.6,57.9,55.0,92,73,38,29.96,29.87,17,6,19,0.00
2014-8-30,86.0,71.1,57.7,59.0,55.6,49.8,87,62,32,29.92,29.83,15,4,18,0.00
2014-8-31,85.8,70.1,60.1,59.7,57.4,53.1,90,67,35,29.93,29.82,19,6,19,0.00
2014-9-1,96.3,75.6,56.5,57.7,53.9,49.6,86,52,23,29.86,29.73,12,2,17,0.00
2014-9-2,77.2,67.2,59.9,60.3,57.7,54.1,90,73,55,29.84,29.76,19,6,21,0.00
2014-9-3,82.6,68.2,59.7,59.7,57.6,55.0,89,72,42,29.81,29.68,15,5,19,0.00
2014-9-4,82.0,67.7,59.2,59.0,57.4,55.4,92,72,42,29.80,29.70,14,5,19,0.00
2014-9-5,79.9,66.5,59.5,59.5,57.4,54.9,91,74,47,29.91,29.80,16,5,18,0.00
2014-9-6,80.8,65.2,57.0,57.6,55.4,53.2,92,73,41,29.97,29.86,15,5,17,0.00
2014-9-7,79.2,64.7,56.8,55.8,54.3,52.7,88,72,42,29.91,29.80,15,5,16,0.00
2014-9-8,70.2,61.3,56.8,54.1,52.7,51.6,86,74,55,29.96,29.85,16,6,18,0.00
2014-9-9,82.6,67.2,57.2,56.8,53.5,48.2,86,65,31,30.01,29.88,13,4,16,0.00
2014-9-10,98.1,73.9,52.0,57.2,51.4,40.3,89,53,14,29.96,29.80,11,2,12,0.00
2014-9-11,98.1,76.6,55.0,54.9,50.4,42.4,84,46,15,29.90,29.79,12,2,16,0.00
2014-9-12,95.7,76.1,56.7,58.3,54.6,49.6,80,51,26,29.88,29.76,11,2,14,0.00
2014-9-13,93.7,73.3,60.3,60.1,56.5,50.2,85,59,30,29.85,29.74,17,3,19,0.00
2014-9-14,87.4,72.7,58.5,59.2,53.8,46.0,88,56,24,29.85,29.78,15,4,20,0.00
2014-9-15,80.4,67.8,59.9,58.6,55.6,51.3,90,67,41,29.94,29.83,14,5,18,0.00
2014-9-16,86.9,69.7,56.7,59.4,56.8,51.6,91,67,31,29.95,29.79,12,3,17,0.00
2014-9-17,84.2,70.0,58.6,62.2,57.6,53.4,93,68,37,29.83,29.73,14,4,22,0.00
2014-9-18,77.9,71.1,63.0,64.4,61.8,58.6,89,73,53,29.90,29.78,14,4,19,0.00
2014-9-19,80.2,68.4,58.8,62.4,59.8,56.1,94,76,48,29.93,29.83,13,4,16,0.00
2014-9-20,78.8,67.3,60.8,62.2,59.6,58.1,93,78,49,29.96,29.87,13,4,17,0.00
2014-9-21,70.5,64.9,62.2,61.2,59.3,57.7,88,82,70,30.03,29.93,13,5,16,0.00
2014-9-22,83.5,68.2,62.1,59.5,58.4,56.8,88,73,41,30.06,29.94,16,4,20,0.00
2014-9-23,81.9,68.6,60.4,63.1,58.9,55.0,89,74,41,30.02,29.91,15,4,15,0.00
2014-9-24,79.2,69.2,63.7,64.0,62.5,60.8,93,80,59,29.98,29.86,14,3,18,0.00
2014-9-25,72.9,64.7,58.1,62.4,57.5,53.6,94,79,52,30.03,29.89,12,2,14,0.34
2014-9-26,74.3,64.4,57.0,59.4,56.0,52.3,93,76,50,30.02,29.91,17,3,19,0.00
2014-9-27,73.6,64.3,56.8,59.0,56.6,54.5,93,77,55,29.94,29.82,18,4,22,0.00
2014-9-28,74.7,64.4,55.2,59.0,56.6,52.9,92,77,54,29.97,29.83,12,2,13,0.00
2014-9-29,74.7,63.5,56.7,59.5,57.0,54.5,95,81,54,30.04,29.96,14,4,19,0.00
2014-9-30,78.3,65.7,56.7,59.0,56.7,52.5,92,75,41,30.00,29.84,11,3,13,0.00
2014-10-1,87.6,68.6,51.3,55.4,43.3,29.7,94,51,13,29.95,29.86,6,1,13,0.00
2014-10-2,90.9,68.8,47.7,49.1,43.7,37.4,83,47,18,30.06,29.95,5,1,8,0.00
2014-10-3,96.1,72.3,51.3,49.1,45.2,38.1,84,46,15,30.11,29.99,6,0,9,0.00
2014-10-4,97.5,73.3,51.1,48.0,43.2,33.3,79,42,11,30.06,29.91,6,1,9,0.00
2014-10-5,99.0,73.6,51.4,50.0,44.5,30.9,77,43,10,29.98,29.85,8,1,11,0.00
2014-10-6,97.2,73.8,52.5,55.4,47.4,39.4,78,45,16,29.94,29.82,11,1,13,0.00
2014-10-7,89.6,69.5,51.6,56.3,52.1,46.4,85,58,30,29.93,29.81,11,2,14,0.00
2014-10-8,91.6,70.7,52.2,57.2,52.1,44.6,90,58,23,29.93,29.83,16,3,18,0.00
2014-10-9,78.3,64.0,52.3,57.7,53.8,48.7,89,71,45,29.99,29.90,17,4,19,0.00
2014-10-10,75.0,63.2,56.8,56.8,54.9,53.1,90,76,49,30.09,29.97,16,6,18,0.00
2014-10-11,84.7,66.2,52.9,58.3,54.3,49.8,94,69,39,30.08,29.96,12,3,16,0.00
2014-10-12,92.8,71.1,52.9,51.4,37.0,15.8,86,42,6,30.02,29.89,11,1,14,0.00
2014-10-13,90.0,68.5,49.6,50.2,40.2,24.6,71,42,10,29.99,29.90,15,1,18,0.00
2014-10-14,71.8,63.6,51.4,56.8,54.0,48.6,92,72,54,29.95,29.83,19,3,22,0.00
2014-10-15,71.4,65.0,57.7,57.7,55.2,51.4,91,72,50,30.04,29.87,9,2,11,0.05
2014-10-16,72.9,60.2,49.3,55.0,50.2,44.6,96,73,39,30.06,29.94,11,2,14,0.00
2014-10-17,75.6,61.6,48.4,51.8,49.3,46.0,92,67,41,30.00,29.92,10,1,12,0.00
2014-10-18,80.2,65.0,50.5,57.4,53.3,47.5,90,68,41,30.01,29.87,10,1,14,0.00
2014-10-19,78.4,64.0,52.2,60.6,55.8,49.8,93,77,46,29.94,29.84,14,2,18,0.00
2014-10-20,70.2,62.6,54.0,59.5,56.0,50.5,90,80,60,30.08,29.91,13,2,15,0.00
2014-10-21,72.1,58.2,45.9,53.1,48.2,39.7,95,73,31,30.14,30.01,12,1,18,0.00
2014-10-22,75.4,60.4,46.0,57.0,50.7,43.9,94,73,42,30.10,30.01,12,1,13,0.00
2014-10-23,75.9,63.5,53.8,58.3,55.2,51.4,94,76,50,30.10,29.97,7,1,11,0.00
2014-10-24,77.5,61.7,48.4,58.1,53.6,46.8,95,77,46,30.01,29.88,15,2,20,0.00
2014-10-25,70.7,63.4,56.5,59.2,55.8,52.2,94,77,53,30.15,29.92,16,3,20,0.22
2014-10-26,68.9,57.9,47.5,55.4,48.3,41.4,96,74,39,30.19,30.06,12,1,12,0.01
2014-10-27,72.0,56.1,41.7,51.6,46.4,40.1,95,73,38,30.10,30.01,11,1,13,0.00
2014-10-28,78.1,59.0,43.2,52.5,46.6,41.4,95,68,30,30.15,30.06,10,1,11,0.00
2014-10-29,81.9,63.2,47.1,51.1,46.7,42.1,93,61,26,30.14,29.98,9,1,16,0.00
2014-10-30,81.0,61.9,51.3,56.5,50.9,43.7,85,70,27,29.99,29.87,11,2,13,0.00
2014-10-31,63.5,58.7,54.3,57.4,54.1,51.4,92,85,75,29.93,29.73,10,1,15,0.15
2014-11-1,63.0,55.1,46.4,52.0,49.1,44.1,94,81,57,30.06,29.73,15,2,19,0.00
2014-11-2,66.6,52.5,40.5,50.4,43.9,39.0,96,76,37,30.20,30.06,11,1,14,0.00
2014-11-3,70.9,53.7,39.7,50.4,43.0,36.1,94,72,29,30.29,30.19,11,1,12,0.00
2014-11-4,73.0,55.4,40.1,48.9,43.9,38.3,95,69,36,30.35,30.24,6,0,8,0.00
2014-11-5,75.9,59.4,43.9,49.6,46.3,41.2,91,66,37,30.27,30.09,9,1,11,0.00
2014-11-6,79.0,60.4,46.8,56.7,50.0,44.1,92,72,32,30.24,30.16,11,1,13,0.00
2014-11-7,78.6,59.5,48.0,59.0,51.7,46.9,97,78,42,30.25,30.10,7,1,8,0.00
2014-11-8,81.3,60.9,44.6,54.7,49.6,43.0,95,71,37,30.15,30.01,7,0,9,0.00
2014-11-9,81.3,60.7,44.6,56.1,49.6,42.4,93,71,36,30.05,29.83,8,1,10,0.00
2014-11-10,77.4,59.1,45.7,57.0,51.0,43.9,95,77,41,29.86,29.78,11,2,16,0.00
2014-11-11,65.7,58.6,54.3,53.6,50.5,48.6,89,75,57,29.99,29.85,12,2,14,0.00
2014-11-12,67.8,59.6,54.7,50.9,48.2,45.5,83,67,47,30.04,29.97,9,1,11,0.01
2014-11-13,63.7,59.0,54.0,59.5,56.1,51.1,97,90,78,30.09,29.94,8,1,13,0.45
2014-11-14,65.8,57.1,48.4,55.9,52.4,46.9,97,85,63,30.13,30.07,9,2,13,0.01
2014-11-15,66.6,54.2,44.8,54.0,49.1,43.7,97,84,59,30.22,30.11,10,1,12,0.00
2014-11-16,61.9,50.8,41.5,46.2,34.4,18.9,96,61,21,30.29,30.20,10,1,12,0.01
2014-11-17,65.8,50.1,36.5,41.0,36.2,29.7,91,64,30,30.29,30.14,10,1,15,0.00
2014-11-18,63.0,50.8,40.6,46.2,42.8,37.4,91,75,51,30.18,30.08,4,0,7,0.00
2014-11-19,67.5,56.0,49.5,56.7,50.8,45.5,96,84,47,30.16,30.03,12,1,17,0.19
2014-11-20,57.0,53.9,48.6,55.9,52.6,47.5,97,96,91,30.14,30.01,5,0,6,0.70
2014-11-21,62.6,55.7,49.8,53.1,51.4,48.7,97,86,67,30.16,30.05,6,0,8,0.00
2014-11-22,65.8,58.6,48.6,61.0,54.1,46.8,95,86,66,30.27,30.07,16,2,16,0.23
2014-11-23,65.1,51.2,41.4,53.2,43.8,39.6,98,79,42,30.37,30.26,7,0,9,0.01
2014-11-24,69.3,50.0,35.8,44.8,38.2,32.7,96,70,26,30.45,30.35,3,0,5,0.00
2014-11-25,65.1,50.7,38.8,49.1,43.2,36.7,94,78,50,30.49,30.36,11,1,15,0.00
2014-11-26,70.0,52.5,38.7,50.9,44.7,37.4,96,78,44,30.36,30.22,6,0,8,0.01
2014-11-27,73.9,52.7,40.6,52.0,45.4,39.4,97,80,37,30.24,30.07,5,0,5,0.00
2014-11-28,66.0,49.8,35.1,52.5,45.0,34.0,97,85,53,30.09,29.88,9,1,13,0.01
2014-11-29,65.7,58.1,53.8,58.3,54.5,50.4,96,88,72,29.88,29.77,7,1,8,0.11
2014-11-30,57.9,54.7,51.6,55.6,52.8,50.0,97,93,83,30.06,29.76,8,0,13,0.59
2014-12-1,63.3,55.5,50.5,57.9,54.0,49.6,98,95,81,30.16,29.98,6,1,9,0.10
2014-12-2,56.5,54.5,53.1,55.2,53.5,52.2,98,96,92,29.99,29.71,12,1,13,1.60
2014-12-3,64.8,58.6,54.5,59.7,56.8,53.6,98,94,80,29.91,29.74,21,1,28,1.86
2014-12-4,68.5,57.7,51.4,61.0,54.4,50.5,98,90,65,30.04,29.90,8,0,10,0.07
2014-12-5,68.2,57.9,49.6,59.0,54.6,48.7,98,90,69,30.11,30.00,8,1,12,0.21
2014-12-6,69.6,61.2,54.1,59.9,56.9,52.7,96,87,65,30.24,30.10,7,1,10,0.02
2014-12-7,62.1,55.2,50.4,58.1,53.6,49.5,98,95,84,30.24,30.14,7,0,12,0.01
2014-12-8,71.1,57.0,50.2,57.9,53.5,49.6,98,89,57,30.21,30.13,6,0,8,0.01
2014-12-9,64.9,55.6,49.3,56.8,52.9,48.4,98,91,72,30.22,30.10,6,0,8,0.00
2014-12-10,64.9,58.2,52.3,56.3,53.2,51.4,98,85,62,30.11,29.76,14,2,21,0.00
2014-12-11,65.7,57.3,48.9,56.3,52.3,47.8,96,84,63,29.76,29.54,22,3,28,3.52
2014-12-12,56.7,49.9,44.8,51.4,47.7,43.7,97,92,75,30.11,29.67,3,0,6,0.24
2014-12-13,55.0,47.3,42.4,49.8,45.3,41.4,98,93,79,30.26,30.11,8,0,9,0.00
2014-12-14,57.0,48.3,41.7,48.6,45.2,40.6,98,89,71,30.19,30.02,11,1,13,0.05
2014-12-15,56.7,50.5,47.1,52.2,48.7,45.7,97,93,81,30.03,29.85,9,1,13,1.09
2014-12-16,62.1,51.2,43.9,54.7,47.6,43.3,98,89,62,29.99,29.85,13,1,16,0.66
2014-12-17,58.8,50.0,43.9,52.2,47.7,43.2,98,92,68,30.11,29.96,9,0,11,0.28
2014-12-18,61.0,52.7,48.9,52.9,49.9,47.8,97,91,73,30.21,30.09,4,0,6,0.01
2014-12-19,60.3,55.1,47.8,54.5,52.1,46.8,97,90,77,30.20,30.13,9,1,13,0.13
2014-12-20,60.3,56.4,52.5,56.5,53.2,50.5,98,90,72,30.28,30.14,5,0,7,0.10
2014-12-21,65.7,59.0,55.4,60.3,56.8,53.8,98,93,82,30.34,30.26,12,2,13,0.01
2014-12-22,67.6,58.5,49.3,58.3,55.0,48.2,97,89,65,30.31,30.19,6,1,8,0.00
2014-12-23,70.5,54.9,44.1,55.8,48.5,43.5,98,82,49,30.24,30.15,7,0,9,0.01
2014-12-24,59.0,49.3,42.3,54.0,45.9,39.6,98,89,75,30.14,29.96,23,3,25,0.05
2014-12-25,57.0,47.3,39.6,39.7,33.6,26.2,89,62,32,30.17,30.07,21,3,23,0.00
2014-12-26,57.0,48.0,35.4,33.3,30.5,26.2,87,52,33,30.29,30.12,12,2,17,0.00
2014-12-27,54.1,41.5,30.6,39.0,34.4,28.8,93,78,51,30.42,30.29,5,1,8,0.00
2014-12-28,59.4,45.4,35.4,44.1,39.3,33.6,96,81,52,30.41,30.25,9,0,9,0.00
2014-12-29,54.7,46.2,39.0,43.7,40.7,36.7,94,82,63,30.27,30.12,8,1,14,0.00
2014-12-30,52.3,44.8,34.5,38.3,24.8,13.3,94,51,26,30.28,30.13,25,4,37,0.00
2014-12-31,59.5,46.4,35.8,21.7,12.9,0.7,50,28,10,30.29,30.09,20,3,22,0.00
2015-1-1,54.7,41.7,30.9,30.9,25.6,13.5,88,55,25,30.21,30.09,8,1,9,0.00
2015-1-2,53.4,38.2,26.2,34.3,30.2,23.7,93,75,46,30.27,30.14,5,0,8,0.00